Location: Poughquag
(41.6090°N, 73.6820°W)
Time: 08:06:48
(UTC-05:00)

STRAND 1 - Pass Details

Date: 02 December 2023
Orbit: 766 x 778 km, 98.4° (Epoch: 24 February)

Event Time Altitude Azimuth Distance (km) Brightness Sun altitude
Rises 05:54:19 0° 176° (S) 3,235 ? -12.5°
Reaches altitude 10° 05:56:39 10° 180° (S) 2,310 ? -12.1°
Maximum altitude 06:01:40 59° 259° (W) 892 ? -11.2°
Drops below altitude 10° 06:06:43 10° 339° (NNW) 2,319 ? -10.4°
Sets 06:09:04 0° 343° (NNW) 3,248 ? -9.9°
